[[{"header":{"parameterUnit":"m.s-1","parameterCategory":2,"la1":30.2991,"la2":30.254,"lo1":-89.0895,"lo2":-89.0444,"dy":0.0017,"dx":0.0017,"nx":28,"ny":28,"refTime":"2023-03-13T21:00:00:Z","depth":"0","parameterNumber":2,"parameterNumberName":"U-component_of_CURRENTS"},"data":[0,0,0,0,0,0,0,0,0,0,0,0,0,0,0,0,0,0,0,0,0,0,0,0,0,0,0,0,0,0,0,0,0,0,0,0,0,0,0,0,0,0,0,0,0,0,0,0,0,0,0,0,0,0,0,0,0,0,0.2731,0.2731,0,0.2767,0.2767,0.2767,0.2761,0.276,0.276,0.276,0.2762,0.2763,0.2763,0,0,0,0,0,0,0,0,0,0,0,0,0,0.2661,0.2662,0.2731,0.2731,0.2732,0.2767,0.2767,0.2768,0.2761,0.276,0.276,0.2759,0.2762,0.2763,0.2763,0,0,0,0,0,0,0,0,0,0,0,0,0,0.2691,0.2663,0.2731,0.2735,0.2736,0.2767,0.2767,0.2768,0.2761,0.276,0.276,0.2759,0.2762,0.2763,0.2763,0.278,0,0,0.2766,0.2766,0,0,0,0,0,0,0,0,0.269,0.2694,0.2734,0.2735,0.2736,0.2761,0.2744,0.2771,0.2761,0.2749,0.276,0.2759,0.2761,0.2762,0.2767,0.278,0.278,0.2766,0.2766,0.2766,0.2767,0,0,0,0,0,0,0,0.2688,0.2692,0.2742,0.2734,0.2736,0.2737,0.2741,0.2749,0.2755,0.275,0.275,0.2758,0.2761,0.2766,0.2767,0.278,0.2766,0.2766,0.2767,0.2767,0.2843,0.2845,0,0,0,0,0,0,0.2689,0.269,0.2741,0.2744,0.2714,0.2739,0.2743,0.2751,0.2756,0.2757,0.2759,0.2758,0.2765,0.2766,0.2767,0.281,0.2766,0.2767,0.2767,0.2842,0.2844,0.2845,0,0,0,0,0,0,0.2687,0.2693,0.274,0.272,0.2726,0.2741,0.2751,0.2753,0.2761,0.2764,0.2763,0.2767,0.2765,0.2766,0.2787,0.2809,0.2767,0.2768,0.284,0.2842,0.2844,0.2881,0,0,0,0,0,0,0.2685,0.2692,0.2699,0.272,0.2727,0.2767,0.2752,0.2754,0.2769,0.2768,0.277,0.277,0.2764,0.2786,0.2787,0.2809,0.2768,0.2838,0.2841,0.2844,0.2878,0.2885,0.289,0,0,0,0,0,0.2683,0.2695,0.27,0.2706,0.2736,0.2768,0.2772,0.2778,0.277,0.2781,0.2785,0.277,0.2806,0.2788,0.2789,0.2812,0.2836,0.284,0.2843,0.2875,0.2883,0.289,0,0,0,0,0,0,0.2667,0.2697,0.2702,0.2722,0.2748,0.2768,0.2782,0.2784,0.2796,0.2795,0.2787,0.2788,0.2818,0.2813,0.2793,0.2845,0.282,0.2825,0.2844,0.2852,0.2858,0.2867,0.2769,0,0,0,0,0,0.2668,0.2687,0.2716,0.2733,0.2748,0.2765,0.2778,0.2786,0.2801,0.2805,0.2807,0.2816,0.2836,0.284,0.2856,0.2879,0.2892,0.2897,0.2904,0.2909,0.2919,0.2957,0.2967,0.2857,0.2857,0.2857,0,0,0.2666,0.2687,0.2696,0.2732,0.2751,0.2778,0.2771,0.2799,0.2821,0.2804,0.283,0.2839,0.2849,0.288,0.2893,0.2876,0.295,0.2913,0.2917,0.2925,0.2962,0.2973,0.2982,0.286,0.2859,0.2859,0,0,0.2675,0.2693,0.2712,0.2738,0.2775,0.2792,0.2802,0.2829,0.2841,0.2869,0.287,0.2893,0.291,0.2928,0.2938,0.2988,0.2986,0.2993,0.3025,0.3061,0.307,0.3079,0.3118,0.313,0.299,0.2991,0.2991,0,0.2668,0.2698,0.2723,0.2752,0.2776,0.2799,0.2827,0.2849,0.2878,0.2896,0.2882,0.2933,0.2936,0.2985,0.3003,0.3002,0.3023,0.2991,0.3069,0.3077,0.3084,0.3123,0.3135,0.2993,0.2992,0.2992,0.2992,0,0.2695,0.272,0.2737,0.278,0.2812,0.2841,0.288,0.2905,0.2917,0.2938,0.2987,0.2998,0.3028,0.3035,0.3033,0.3095,0.3094,0.3074,0.3046,0.3098,0.3135,0.3147,0.2996,0.2995,0.2994,0.2994,0,0,0.2669,0.2739,0.2743,0.2768,0.2828,0.2854,0.2903,0.2953,0.2985,0.3012,0.3058,0.3092,0.31,0.3114,0.3118,0.3147,0.3219,0.3136,0.3137,0.3169,0.3311,0.3331,0.3346,0.3211,0.3213,0.3215,0.3318,0,0.2677,0.2734,0.2767,0.2816,0.2851,0.2891,0.2935,0.2987,0.3023,0.3074,0.3105,0.3149,0.3131,0.3149,0.318,0.3217,0.3251,0.3194,0.3261,0.3264,0.327,0.3361,0.334,0.3432,0.3329,0.3331,0.3333,0,0.2685,0.2728,0.2776,0.2844,0.2862,0.2888,0.2962,0.3004,0.3086,0.3121,0.3174,0.3203,0.3271,0.3235,0.3325,0.3291,0.3309,0.3325,0.3329,0.3344,0.3307,0.3363,0.3457,0.3447,0.3351,0.3349,0.3348,0,0.2655,0.2728,0.2763,0.2786,0.2867,0.2889,0.293,0.3012,0.3066,0.3153,0.3211,0.3277,0.3334,0.3365,0.3415,0.3374,0.3513,0.3453,0.3489,0.349,0.3485,0.3482,0.3572,0.3513,0.3512,0.3512,0.3512,0,0.2644,0.2669,0.2747,0.2761,0.2803,0.2873,0.2922,0.2974,0.3084,0.3153,0.3228,0.3306,0.3371,0.3456,0.3462,0.3542,0.3555,0.3527,0.353,0.3499,0.3497,0.3495,0.3459,0.3516,0.3515,0.3514,0.3514,0,0.259,0.2642,0.268,0.276,0.278,0.2807,0.2908,0.2957,0.3069,0.3167,0.3207,0.3365,0.348,0.3549,0.363,0.3623,0.3609,0.3687,0.3656,0.3654,0.3644,0.3609,0.3504,0.3383,0.3735,0.3737,0.3738,0,0.2563,0.2581,0.2652,0.2671,0.2695,0.2753,0.2795,0.2919,0.2986,0.3192,0.3241,0.3417,0.3518,0.3688,0.3743,0.3805,0.367,0.3789,0.3696,0.3679,0.3643,0.3437,0.3325,0.3707,0.3708,0.3709,0.3709,0,0.2507,0.2527,0.2557,0.26,0.2632,0.2685,0.276,0.2821,0.2974,0.309,0.325,0.3359,0.3585,0.3683,0.3811,0.3827,0.3663,0.3802,0.3794,0.3655,0.3425,0.3299,0.3603,0.3715,0.3714,0.3714,0.3713,0.3713,0.2446,0.245,0.2485,0.2519,0.2557,0.2597,0.261,0.2727,0.2832,0.2991,0.3162,0.3324,0.3599,0.3799,0.3783,0.3852,0.3701,0.3798,0.3768,0.3568,0.3418,0.3743,0.3846,0.3846,0.3847,0.3847,0.3847,0,0.2365,0.2381,0.241,0.2431,0.2436,0.2494,0.2567,0.2584,0.2662,0.2898,0.3038,0.3372,0.3544,0.3721,0.3942,0.3879,0.3616,0.3795,0.3525,0.3417,0.3765,0.3737,0.3808,0.3808,0.3808,0.3808,0.3808,0.3808,0.2318,0.2304,0.2325,0.2299,0.2319,0.2292,0.2311,0.2368,0.2516,0.2737,0.2962,0.319,0.3637,0.3983,0.4053,0.3944,0.3628,0.3507,0.3388,0.3722,0.3719,0.3716,0.3684,0.3743,0.3743,0.2924,0.2919,0.2915]},{"header":{"parameterUnit":"m.s-1","parameterCategory":2,"la1":30.2991,"la2":30.254,"lo1":-89.0895,"lo2":-89.0444,"dy":0.0017,"dx":0.0017,"nx":28,"ny":28,"refTime":"2023-03-13T21:00:00:Z","depth":"0","parameterNumber":3,"parameterNumberName":"V-component_of_CURRENTS"},"data":[0,0,0,0,0,0,0,0,0,0,0,0,0,0,0,0,0,0,0,0,0,0,0,0,0,0,0,0,0,0,0,0,0,0,0,0,0,0,0,0,0,0,0,0,0,0,0,0,0,0,0,0,0,0,0,0,0,0,-0.0176,-0.0177,0,-0.0251,-0.0252,-0.0253,-0.0309,-0.0309,-0.0309,-0.031,-0.0411,-0.0414,-0.0416,0,0,0,0,0,0,0,0,0,0,0,0,0,-0.0144,-0.0144,-0.0176,-0.0177,-0.0178,-0.0251,-0.0252,-0.0253,-0.0309,-0.0309,-0.0309,-0.031,-0.0411,-0.0413,-0.0416,0,0,0,0,0,0,0,0,0,0,0,0,0,-0.0184,-0.0144,-0.0176,-0.0213,-0.0217,-0.0251,-0.0252,-0.0254,-0.0308,-0.0309,-0.0309,-0.031,-0.041,-0.0413,-0.0417,-0.0428,0,0,-0.0428,-0.0429,0,0,0,0,0,0,0,0,-0.0181,-0.0185,-0.0207,-0.021,-0.0215,-0.027,-0.0278,-0.0313,-0.0308,-0.0275,-0.031,-0.031,-0.0365,-0.0372,-0.0387,-0.0433,-0.0438,-0.0428,-0.043,-0.0432,-0.0433,0,0,0,0,0,0,0,-0.0178,-0.0182,-0.0207,-0.0207,-0.0212,-0.0247,-0.0253,-0.0285,-0.0318,-0.0278,-0.0282,-0.0288,-0.0368,-0.0384,-0.039,-0.0439,-0.0428,-0.0431,-0.0433,-0.0435,-0.0507,-0.0507,0,0,0,0,0,0,-0.0162,-0.0179,-0.0205,-0.0209,-0.0197,-0.0247,-0.0254,-0.0253,-0.0317,-0.0327,-0.0287,-0.029,-0.0377,-0.0386,-0.0394,-0.04,-0.0432,-0.0435,-0.0437,-0.0508,-0.0507,-0.0507,0,0,0,0,0,0,-0.0161,-0.0163,-0.0202,-0.0195,-0.0203,-0.0246,-0.0245,-0.0254,-0.0268,-0.0323,-0.0334,-0.0292,-0.0378,-0.0389,-0.0419,-0.0405,-0.0437,-0.044,-0.0508,-0.0508,-0.0507,-0.042,0,0,0,0,0,0,-0.016,-0.0162,-0.0156,-0.0194,-0.0202,-0.0213,-0.0245,-0.0255,-0.027,-0.0275,-0.0331,-0.0341,-0.0379,-0.0413,-0.0423,-0.041,-0.0443,-0.0508,-0.0508,-0.0507,-0.0423,-0.0417,-0.0411,0,0,0,0,0,-0.0158,-0.0141,-0.0155,-0.0159,-0.0192,-0.0212,-0.022,-0.0255,-0.0269,-0.027,-0.031,-0.034,-0.0418,-0.0416,-0.0427,-0.0415,-0.0508,-0.0508,-0.0507,-0.0426,-0.0418,-0.0411,0,0,0,0,0,0,-0.0124,-0.0147,-0.0163,-0.0154,-0.0178,-0.0221,-0.0222,-0.0247,-0.0279,-0.0281,-0.0337,-0.035,-0.0372,-0.0407,-0.0404,-0.0437,-0.0468,-0.0469,-0.0402,-0.0395,-0.0389,-0.0364,-0.0446,0,0,0,0,0,-0.0112,-0.0107,-0.0139,-0.0132,-0.014,-0.018,-0.0193,-0.0214,-0.0247,-0.0262,-0.0302,-0.0345,-0.0379,-0.0396,-0.0433,-0.0449,-0.0483,-0.045,-0.0444,-0.0438,-0.0427,-0.0472,-0.0468,-0.0506,-0.0506,-0.0506,0,0,-0.0098,-0.0109,-0.0107,-0.0125,-0.0146,-0.0144,-0.0189,-0.0197,-0.0198,-0.0267,-0.028,-0.0325,-0.0379,-0.0398,-0.041,-0.0425,-0.0445,-0.0438,-0.0433,-0.0424,-0.0471,-0.0467,-0.0464,-0.0505,-0.0505,-0.0505,0,0,-0.0059,-0.0074,-0.0055,-0.007,-0.0091,-0.0113,-0.0111,-0.0148,-0.0166,-0.0186,-0.0235,-0.027,-0.0322,-0.0357,-0.0381,-0.0365,-0.0413,-0.0378,-0.0326,-0.0369,-0.0366,-0.0364,-0.0395,-0.0396,-0.0373,-0.0373,-0.0373,0,-0.0041,-0.0021,-0.0054,-0.004,-0.0043,-0.0092,-0.0073,-0.0098,-0.0141,-0.0149,-0.0178,-0.0253,-0.0301,-0.0323,-0.032,-0.0349,-0.0379,-0.0345,-0.0359,-0.0358,-0.0357,-0.039,-0.0392,-0.0369,-0.0369,-0.037,-0.037,0,0.0008,0.0023,0.0035,0.0037,0.0029,0.0038,0.0003,-0.0007,-0.0036,-0.0067,-0.0098,-0.0168,-0.0212,-0.0235,-0.0273,-0.0287,-0.0311,-0.0346,-0.0372,-0.0348,-0.0384,-0.0388,-0.0363,-0.0364,-0.0366,-0.0367,0,0,0.0055,0.0068,0.0073,0.0093,0.0073,0.0076,0.0078,0.0066,0.0075,0.0017,0.0018,-0.0055,-0.0098,-0.0128,-0.0185,-0.0225,-0.0248,-0.0274,-0.0279,-0.0294,-0.0334,-0.0352,-0.0359,-0.0286,-0.0286,-0.0286,-0.0358,0,0.0106,0.0157,0.0144,0.0192,0.0216,0.0178,0.0185,0.0165,0.0134,0.012,0.0043,0.0017,-0.0056,-0.0073,-0.0124,-0.0218,-0.0256,-0.0225,-0.0365,-0.0368,-0.0379,-0.0364,-0.0365,-0.043,-0.0363,-0.0364,-0.0364,0,0.0163,0.0191,0.0249,0.0279,0.0286,0.03,0.0309,0.0311,0.0272,0.0242,0.0195,0.0136,0.0071,0.0004,-0.0137,-0.0114,-0.021,-0.0287,-0.0293,-0.0342,-0.0395,-0.0447,-0.0441,-0.066,-0.0371,-0.0371,-0.037,0,0.0224,0.0267,0.0321,0.0328,0.0348,0.0365,0.037,0.0349,0.0369,0.0321,0.0328,0.0227,0.0188,0.0053,-0.0108,-0.0122,-0.0263,-0.0309,-0.0414,-0.0417,-0.0461,-0.0466,-0.0673,-0.0402,-0.0402,-0.0402,-0.0401,0,0.0287,0.0332,0.0354,0.0385,0.045,0.0431,0.0488,0.0472,0.0469,0.0507,0.0399,0.0407,0.0199,0.0096,-0.0067,-0.0247,-0.0237,-0.0396,-0.0435,-0.043,-0.0432,-0.066,-0.0801,-0.0404,-0.0404,-0.0403,-0.0403,0,0.0347,0.0363,0.0431,0.0467,0.0485,0.0528,0.0577,0.0617,0.0593,0.0641,0.0637,0.0543,0.0402,0.0196,-0.0024,-0.0181,-0.0487,-0.0426,-0.0398,-0.0433,-0.0735,-0.087,-0.1087,-0.1182,-0.0553,-0.0554,-0.0554,0,0.0382,0.0426,0.0497,0.0543,0.0563,0.0622,0.0671,0.0677,0.0726,0.0736,0.0772,0.0663,0.0608,0.0276,-0.0035,-0.0321,-0.052,-0.0508,-0.0542,-0.0747,-0.0928,-0.0988,-0.1057,-0.0568,-0.0569,-0.057,-0.057,0,0.0454,0.0479,0.0535,0.0627,0.0693,0.0774,0.084,0.0904,0.0924,0.0964,0.1,0.0965,0.0649,0.0366,-0.0036,-0.0258,-0.0671,-0.0529,-0.076,-0.0969,-0.1032,-0.1142,-0.0522,-0.0576,-0.0575,-0.0575,-0.0575,-0.0574,0.0507,0.0557,0.0631,0.0721,0.0806,0.0914,0.0991,0.1068,0.117,0.1248,0.1192,0.1182,0.0756,0.0207,-0.0129,-0.0733,-0.0737,-0.0909,-0.1057,-0.1097,-0.1195,-0.0575,-0.0663,-0.0663,-0.0663,-0.0663,-0.0663,0,0.057,0.0628,0.0717,0.0832,0.0936,0.0964,0.1102,0.1183,0.1313,0.1399,0.143,0.124,0.0701,0.0148,-0.0641,-0.1129,-0.1303,-0.1426,-0.1538,-0.1584,-0.1051,-0.1057,-0.1213,-0.1213,-0.1212,-0.1212,-0.1212,-0.1212,0.0609,0.0706,0.0752,0.093,0.1008,0.1152,0.1238,0.136,0.1456,0.1569,0.1596,0.1569,0.1175,-0.0269,-0.1327,-0.1639,-0.1971,-0.2086,-0.2243,-0.1923,-0.1886,-0.185,-0.1889,-0.2216,-0.2217,-0.2678,-0.2684,-0.2688]}],[{"header":{"parameterUnit":"m.s-1","parameterCategory":2,"la1":30.2991,"la2":30.254,"lo1":-89.0895,"lo2":-89.0444,"dy":0.0017,"dx":0.0017,"nx":28,"ny":28,"refTime":"2023-03-13T21:00:00:Z","depth":"2","parameterNumber":2,"parameterNumberName":"U-component_of_CURRENTS"},"data":[0,0,0,0,0,0,0,0,0,0,0,0,0,0,0,0,0,0,0,0,0,0,0,0,0,0,0,0,0,0,0,0,0,0,0,0,0,0,0,0,0,0,0,0,0,0,0,0,0,0,0,0,0,0,0,0,0,0,0.2645,0.2646,0,0.2681,0.2682,0.2682,0.2678,0.2678,0.2678,0.2677,0.2683,0.2683,0.2684,0,0,0,0,0,0,0,0,0,0,0,0,0,0.2576,0.2577,0.2645,0.2646,0.2647,0.2681,0.2682,0.2682,0.2678,0.2678,0.2678,0.2677,0.2683,0.2683,0.2684,0,0,0,0,0,0,0,0,0,0,0,0,0,0.2606,0.2578,0.2645,0.2651,0.2652,0.2681,0.2682,0.2682,0.2678,0.2678,0.2678,0.2677,0.2682,0.2683,0.2684,0.2697,0,0,0.2686,0.2686,0,0,0,0,0,0,0,0,0.2604,0.2608,0.2649,0.2651,0.2652,0.2677,0.2659,0.2686,0.2679,0.2666,0.2677,0.2677,0.268,0.2681,0.2685,0.2697,0.2697,0.2686,0.2686,0.2686,0.2687,0,0,0,0,0,0,0,0.2602,0.2607,0.2657,0.265,0.2652,0.2653,0.2657,0.2664,0.2672,0.2667,0.2667,0.2676,0.268,0.2685,0.2685,0.2698,0.2686,0.2686,0.2687,0.2687,0.2763,0.2764,0,0,0,0,0,0,0.2604,0.2605,0.2656,0.2658,0.263,0.2655,0.2659,0.2667,0.2673,0.2674,0.2676,0.2676,0.2684,0.2685,0.2686,0.2731,0.2686,0.2687,0.2687,0.2761,0.2763,0.2765,0,0,0,0,0,0,0.2602,0.2608,0.2654,0.2634,0.2641,0.2657,0.2667,0.2668,0.2679,0.2681,0.2681,0.2686,0.2684,0.2685,0.2707,0.273,0.2687,0.2688,0.2759,0.2762,0.2764,0.2803,0,0,0,0,0,0,0.26,0.2607,0.2616,0.2635,0.2642,0.2681,0.2667,0.267,0.2686,0.2686,0.269,0.2689,0.2683,0.2706,0.2707,0.273,0.2688,0.2757,0.276,0.2763,0.2799,0.2806,0.2812,0,0,0,0,0,0.2598,0.2611,0.2616,0.2622,0.2652,0.2682,0.2686,0.2694,0.2687,0.27,0.2704,0.2689,0.2727,0.2708,0.2709,0.2732,0.2756,0.2759,0.2763,0.2797,0.2805,0.2812,0,0,0,0,0,0,0.2583,0.2613,0.2618,0.2639,0.2664,0.2683,0.2697,0.27,0.2714,0.2715,0.2707,0.2708,0.274,0.2734,0.2713,0.2766,0.274,0.2744,0.2766,0.2773,0.2779,0.2788,0.2689,0,0,0,0,0,0.2586,0.2605,0.2632,0.2651,0.2665,0.2682,0.2695,0.2704,0.2719,0.2724,0.2727,0.2737,0.2756,0.2761,0.2777,0.28,0.2811,0.2818,0.2825,0.283,0.284,0.2876,0.2886,0.2777,0.2777,0.2777,0,0,0.2584,0.2605,0.2615,0.265,0.2668,0.2695,0.2689,0.2718,0.2739,0.2723,0.2751,0.2761,0.277,0.2801,0.2814,0.2797,0.287,0.2835,0.2839,0.2847,0.2881,0.2892,0.2901,0.2779,0.2779,0.2779,0,0,0.2594,0.2613,0.2633,0.2658,0.2695,0.2711,0.2722,0.2749,0.2762,0.279,0.2792,0.2816,0.2833,0.285,0.2859,0.2911,0.2907,0.2916,0.2948,0.2983,0.2992,0.3,0.3038,0.3049,0.2913,0.2913,0.2913,0,0.259,0.262,0.2644,0.2673,0.2697,0.2719,0.2747,0.2769,0.2798,0.2817,0.2805,0.2856,0.2859,0.2907,0.2926,0.2924,0.2945,0.2914,0.299,0.2998,0.3006,0.3042,0.3054,0.2916,0.2915,0.2915,0.2915,0,0.2616,0.2642,0.2659,0.2703,0.2733,0.2763,0.28,0.2826,0.284,0.2861,0.2911,0.2922,0.2951,0.2959,0.2957,0.3018,0.3017,0.2996,0.2967,0.3019,0.3055,0.3066,0.2919,0.2918,0.2917,0.2917,0,0,0.2594,0.2662,0.2667,0.2692,0.2751,0.2777,0.2825,0.2875,0.2907,0.2935,0.2981,0.3015,0.3025,0.3038,0.3042,0.307,0.3141,0.3059,0.306,0.309,0.3228,0.3237,0.325,0.3132,0.3134,0.3136,0.3234,0,0.2604,0.266,0.2691,0.2741,0.2776,0.2815,0.2859,0.2909,0.2946,0.2997,0.3027,0.3072,0.3055,0.3075,0.3104,0.3139,0.3172,0.3117,0.3179,0.3181,0.3177,0.3264,0.3012,0.308,0.3245,0.3247,0.3249,0,0.2612,0.2655,0.2702,0.277,0.2788,0.2815,0.2889,0.293,0.301,0.3046,0.3098,0.3127,0.3194,0.316,0.3245,0.3212,0.3229,0.3244,0.3247,0.325,0.3212,0.3054,0.3094,0.3268,0.3266,0.3265,0.3263,0,0.2584,0.2656,0.2692,0.2716,0.2795,0.2818,0.286,0.2939,0.2993,0.308,0.3137,0.3202,0.3257,0.3286,0.3333,0.3294,0.3425,0.3367,0.339,0.339,0.3187,0.3167,0.3424,0.3424,0.3423,0.3423,0.3423,0,0.2575,0.2602,0.2679,0.2694,0.2737,0.2805,0.2856,0.2908,0.3015,0.3083,0.3157,0.3232,0.3294,0.3374,0.3378,0.3447,0.3465,0.3427,0.3428,0.3197,0.3177,0.3338,0.3327,0.3427,0.3426,0.3425,0.3425,0,0.2525,0.2576,0.2615,0.2696,0.2716,0.2744,0.2845,0.2894,0.3004,0.31,0.3139,0.3291,0.3397,0.3462,0.3536,0.3524,0.3566,0.3577,0.3315,0.3285,0.3491,0.3481,0.3607,0.3609,0.361,0.3611,0.3612,0,0.25,0.2519,0.2591,0.2611,0.2636,0.2696,0.2737,0.286,0.2925,0.3123,0.317,0.3338,0.3427,0.358,0.3591,0.3634,0.3639,0.3417,0.3296,0.3528,0.3516,0.3503,0.3492,0.3035,0.3031,0.3028,0.3025,0,0.2448,0.2469,0.25,0.2545,0.2578,0.2631,0.2706,0.2764,0.2913,0.3022,0.3173,0.3271,0.3446,0.3406,0.3501,0.3474,0.339,0.3357,0.3667,0.3046,0.3001,0.2985,0.299,0.2996,0.2999,0.3001,0.3003,0.3004,0.2392,0.2396,0.2432,0.2468,0.2507,0.2545,0.2558,0.2659,0.2756,0.287,0.3047,0.3106,0.3193,0.3222,0.316,0.3122,0.3337,0.3166,0.3169,0.3177,0.3113,0.3074,0.3071,0.3074,0.3077,0.3079,0.3081,0,0.2309,0.2331,0.2361,0.2385,0.2382,0.2447,0.2517,0.2504,0.2557,0.2704,0.2804,0.2659,0.2695,0.2762,0.2686,0.2735,0.2632,0.2606,0.2427,0.2463,0.2493,0.2384,0.2154,0.215,0.2146,0.2143,0,0,0.2262,0.2247,0.2268,0.224,0.2267,0.2225,0.2241,0.2244,0.2311,0.2316,0.2344,0.2566,0.2715,0.2381,0.2381,0.2248,0.2315,0.2166,0.2928,0.2755,0.2779,0.286,0.2742,0,0,0,0,0]},{"header":{"parameterUnit":"m.s-1","parameterCategory":2,"la1":30.2991,"la2":30.254,"lo1":-89.0895,"lo2":-89.0444,"dy":0.0017,"dx":0.0017,"nx":28,"ny":28,"refTime":"2023-03-13T21:00:00:Z","depth":"2","parameterNumber":3,"parameterNumberName":"V-component_of_CURRENTS"},"data":[0,0,0,0,0,0,0,0,0,0,0,0,0,0,0,0,0,0,0,0,0,0,0,0,0,0,0,0,0,0,0,0,0,0,0,0,0,0,0,0,0,0,0,0,0,0,0,0,0,0,0,0,0,0,0,0,0,0,-0.0081,-0.0081,0,-0.0153,-0.0154,-0.0155,-0.0209,-0.021,-0.021,-0.0211,-0.0309,-0.0312,-0.0314,0,0,0,0,0,0,0,0,0,0,0,0,0,-0.005,-0.005,-0.0081,-0.0081,-0.0082,-0.0153,-0.0154,-0.0155,-0.0209,-0.021,-0.021,-0.0211,-0.0309,-0.0311,-0.0314,0,0,0,0,0,0,0,0,0,0,0,0,0,-0.0088,-0.005,-0.0081,-0.0117,-0.0121,-0.0153,-0.0154,-0.0155,-0.0209,-0.021,-0.021,-0.0211,-0.0308,-0.0311,-0.0314,-0.0324,0,0,-0.0325,-0.0326,0,0,0,0,0,0,0,0,-0.0086,-0.0089,-0.0111,-0.0114,-0.0119,-0.0172,-0.0179,-0.0213,-0.0209,-0.0177,-0.0211,-0.0211,-0.0264,-0.0271,-0.0285,-0.0329,-0.0333,-0.0325,-0.0327,-0.0329,-0.033,0,0,0,0,0,0,0,-0.0083,-0.0087,-0.0111,-0.0111,-0.0116,-0.015,-0.0156,-0.0186,-0.0218,-0.018,-0.0184,-0.0189,-0.0267,-0.0282,-0.0288,-0.0335,-0.0325,-0.0328,-0.033,-0.0332,-0.0403,-0.0403,0,0,0,0,0,0,-0.0067,-0.0084,-0.0108,-0.0113,-0.0102,-0.015,-0.0156,-0.0155,-0.0218,-0.0227,-0.0189,-0.0192,-0.0276,-0.0284,-0.0292,-0.03,-0.0329,-0.0332,-0.0334,-0.0403,-0.0403,-0.0402,0,0,0,0,0,0,-0.0066,-0.0069,-0.0105,-0.01,-0.0106,-0.0149,-0.0148,-0.0156,-0.0171,-0.0224,-0.0234,-0.0195,-0.0277,-0.0287,-0.0317,-0.0305,-0.0333,-0.0337,-0.0403,-0.0403,-0.0403,-0.0322,0,0,0,0,0,0,-0.0065,-0.0068,-0.0062,-0.0098,-0.0106,-0.0117,-0.0148,-0.0157,-0.0173,-0.0178,-0.0232,-0.0242,-0.0278,-0.0311,-0.032,-0.031,-0.0339,-0.0403,-0.0403,-0.0403,-0.0325,-0.0319,-0.0314,0,0,0,0,0,-0.0064,-0.0048,-0.0061,-0.0065,-0.0097,-0.0116,-0.0123,-0.0158,-0.0173,-0.0174,-0.0213,-0.024,-0.0316,-0.0314,-0.0324,-0.0315,-0.0403,-0.0403,-0.0403,-0.0327,-0.032,-0.0314,0,0,0,0,0,0,-0.0032,-0.0053,-0.0069,-0.0061,-0.0085,-0.0125,-0.0127,-0.0151,-0.0183,-0.0185,-0.0238,-0.0251,-0.0273,-0.0306,-0.0303,-0.0336,-0.0364,-0.0366,-0.0303,-0.0297,-0.0292,-0.0269,-0.0342,0,0,0,0,0,-0.0021,-0.0016,-0.0046,-0.0041,-0.0048,-0.0087,-0.0099,-0.012,-0.0152,-0.0167,-0.0206,-0.0247,-0.0279,-0.0297,-0.0332,-0.0348,-0.0382,-0.035,-0.0345,-0.034,-0.0329,-0.0374,-0.0372,-0.0401,-0.0401,-0.0401,0,0,-0.0008,-0.0019,-0.0017,-0.0034,-0.0055,-0.0053,-0.0096,-0.0105,-0.0106,-0.0171,-0.0186,-0.0229,-0.028,-0.0299,-0.0312,-0.0325,-0.0349,-0.0339,-0.0335,-0.0327,-0.0374,-0.0371,-0.0368,-0.0401,-0.0401,-0.0401,0,0,0.0028,0.0013,0.0031,0.0017,-0.0003,-0.0025,-0.0023,-0.0059,-0.0078,-0.0097,-0.0144,-0.0179,-0.0229,-0.0263,-0.0286,-0.0273,-0.0319,-0.0285,-0.0237,-0.0281,-0.0279,-0.0277,-0.0309,-0.0311,-0.0281,-0.0281,-0.0281,0,0.0044,0.0064,0.0032,0.0045,0.0042,-0.0006,0.0013,-0.0012,-0.0054,-0.0063,-0.009,-0.0164,-0.021,-0.0233,-0.0231,-0.0259,-0.0288,-0.0255,-0.0272,-0.0271,-0.0271,-0.0305,-0.0308,-0.0277,-0.0278,-0.0278,-0.0278,0,0.0091,0.0105,0.0116,0.0118,0.0109,0.0117,0.0084,0.0073,0.0043,0.0014,-0.0019,-0.0086,-0.0129,-0.0152,-0.0187,-0.0205,-0.0227,-0.0259,-0.0283,-0.0263,-0.03,-0.0305,-0.0271,-0.0273,-0.0274,-0.0275,0,0,0.0135,0.0148,0.0152,0.017,0.0151,0.0154,0.0153,0.0141,0.0148,0.0091,0.0089,0.0018,-0.0024,-0.0053,-0.0108,-0.0148,-0.0175,-0.0194,-0.0199,-0.0216,-0.0263,-0.0282,-0.0289,-0.021,-0.0211,-0.0211,-0.0287,0,0.0182,0.0231,0.0219,0.0263,0.0286,0.0249,0.0255,0.0234,0.0203,0.0187,0.0111,0.0085,0.0015,-0.0002,-0.0054,-0.0145,-0.0185,-0.0151,-0.0289,-0.0293,-0.0304,-0.0294,-0.0269,-0.0334,-0.0292,-0.0292,-0.0293,0,0.0236,0.0263,0.0317,0.0346,0.0352,0.0364,0.0371,0.0372,0.0331,0.0302,0.0254,0.0197,0.013,0.0068,-0.0074,-0.0049,-0.0143,-0.0218,-0.0224,-0.0271,-0.032,-0.0352,-0.0345,-0.0301,-0.0301,-0.03,-0.03,0,0.0293,0.0335,0.0385,0.0392,0.0411,0.0426,0.0429,0.0407,0.0425,0.0377,0.0382,0.028,0.0241,0.0108,-0.0048,-0.0061,-0.0203,-0.0245,-0.035,-0.0352,-0.0372,-0.0376,-0.0339,-0.0339,-0.0339,-0.0339,-0.0339,0,0.0354,0.0395,0.0416,0.0446,0.0507,0.0488,0.0541,0.0524,0.0519,0.0555,0.0448,0.0453,0.025,0.0147,-0.0012,-0.0189,-0.018,-0.0335,-0.0373,-0.0344,-0.0343,-0.0351,-0.0351,-0.0342,-0.0341,-0.034,-0.034,0,0.041,0.0425,0.049,0.0523,0.0541,0.0581,0.0627,0.0664,0.064,0.0684,0.0678,0.0583,0.0442,0.024,0.0023,-0.0129,-0.0305,-0.037,-0.0316,-0.0347,-0.0434,-0.0429,-0.0495,-0.0496,-0.0497,-0.0498,-0.0499,0,0.0443,0.0485,0.0553,0.0597,0.0616,0.0671,0.0718,0.0723,0.0769,0.0773,0.0807,0.0695,0.0634,0.0307,0.0007,-0.0273,-0.0305,-0.0428,-0.0455,-0.0419,-0.045,-0.0443,-0.0438,-0.0451,-0.0451,-0.0451,-0.0452,0,0.0511,0.0535,0.0588,0.0678,0.074,0.0819,0.0882,0.0942,0.0959,0.0993,0.1021,0.098,0.0669,0.0391,-0.0002,-0.0199,-0.0386,-0.0442,-0.0424,-0.0411,-0.0383,-0.0411,-0.0406,-0.0454,-0.0454,-0.0453,-0.0453,-0.0453,0.0561,0.0609,0.0681,0.0767,0.085,0.0954,0.1027,0.1094,0.1187,0.1238,0.1187,0.1122,0.0804,0.0305,-0.0035,-0.0405,-0.0397,-0.0515,-0.0512,-0.051,-0.0487,-0.0462,-0.0543,-0.0543,-0.0543,-0.0543,-0.0544,0,0.0622,0.0677,0.0763,0.0874,0.0974,0.1002,0.1135,0.1199,0.1312,0.1345,0.1353,0.1071,0.0748,0.038,-0.016,-0.0477,-0.0512,-0.0578,-0.0537,-0.0532,-0.0529,-0.0506,-0.0568,-0.0569,-0.057,-0.057,0,0,0.0659,0.0753,0.0797,0.0967,0.1043,0.1179,0.1262,0.1352,0.1403,0.1439,0.1404,0.1299,0.0867,0.0487,0.0048,-0.0254,-0.0327,-0.0329,-0.0277,-0.0174,-0.0166,-0.0464,-0.0421,0,0,0,0,0]}],[{"header":{"parameterUnit":"m.s-1","parameterCategory":2,"la1":30.2991,"la2":30.254,"lo1":-89.0895,"lo2":-89.0444,"dy":0.0017,"dx":0.0017,"nx":28,"ny":28,"refTime":"2023-03-13T21:00:00:Z","depth":"4","parameterNumber":2,"parameterNumberName":"U-component_of_CURRENTS"},"data":[0,0,0,0,0,0,0,0,0,0,0,0,0,0,0,0,0,0,0,0,0,0,0,0,0,0,0,0,0,0,0,0,0,0,0,0,0,0,0,0,0,0,0,0,0,0,0,0,0,0,0,0,0,0,0,0,0,0,0.1725,0.1726,0,0.1803,0.1804,0.1804,0.1863,0.1864,0.1865,0.1866,0.1941,0.1942,0.1943,0,0,0,0,0,0,0,0,0,0,0,0,0,0.1616,0.1618,0.1725,0.1726,0.1727,0.1803,0.1804,0.1804,0.1863,0.1864,0.1865,0.1866,0.194,0.1942,0.1943,0,0,0,0,0,0,0,0,0,0,0,0,0,0.1673,0.1618,0.1725,0.1767,0.1772,0.1803,0.1804,0.1805,0.1863,0.1864,0.1865,0.1866,0.194,0.1942,0.1943,0.1932,0,0,0.1949,0.195,0,0,0,0,0,0,0,0,0.167,0.1677,0.176,0.1765,0.177,0.1827,0.1793,0.1848,0.1863,0.1826,0.1866,0.1867,0.1903,0.1908,0.1917,0.1936,0.1939,0.1949,0.1951,0.1951,0.1952,0,0,0,0,0,0,0,0.1666,0.1674,0.1753,0.1761,0.1767,0.1779,0.1788,0.1803,0.1855,0.1829,0.1834,0.1846,0.1905,0.1915,0.1919,0.194,0.1949,0.1951,0.1952,0.1953,0.2073,0.2075,0,0,0,0,0,0,0.1661,0.167,0.1751,0.1756,0.1724,0.178,0.1791,0.1805,0.1855,0.1865,0.1845,0.1849,0.1911,0.1917,0.1922,0.2016,0.1951,0.1953,0.1954,0.2071,0.2074,0.2076,0,0,0,0,0,0,0.1658,0.1667,0.1748,0.1716,0.1728,0.1781,0.1797,0.1806,0.1855,0.1868,0.1877,0.1889,0.1912,0.1919,0.1975,0.2015,0.1954,0.1956,0.2069,0.2072,0.2075,0.2137,0,0,0,0,0,0,0.1655,0.1666,0.1692,0.1716,0.173,0.1791,0.1797,0.1807,0.1859,0.1865,0.1907,0.1913,0.1913,0.1972,0.1977,0.2017,0.1957,0.2066,0.207,0.2074,0.2132,0.2142,0.215,0,0,0,0,0,0.165,0.1674,0.1692,0.1703,0.1758,0.1793,0.1801,0.184,0.186,0.1887,0.1922,0.1914,0.2,0.1976,0.1981,0.2022,0.2064,0.2069,0.2073,0.2129,0.214,0.215,0,0,0,0,0,0,0.1639,0.1683,0.1704,0.1741,0.1778,0.1804,0.1839,0.1861,0.1909,0.1929,0.1937,0.1946,0.2012,0.2009,0.1982,0.2069,0.2032,0.2038,0.2072,0.2083,0.2092,0.2095,0.1959,0,0,0,0,0,0.1648,0.1684,0.1719,0.1755,0.1777,0.1815,0.1842,0.187,0.1906,0.1931,0.196,0.1994,0.2027,0.205,0.2076,0.2119,0.2118,0.2151,0.216,0.2167,0.2175,0.2203,0.2215,0.2091,0.2091,0.2091,0,0,0.1653,0.1685,0.1706,0.1757,0.1791,0.1827,0.1835,0.1889,0.1928,0.1929,0.2004,0.203,0.2047,0.2102,0.213,0.2109,0.2206,0.2173,0.2179,0.2182,0.2209,0.2221,0.2232,0.2094,0.2093,0.2093,0,0,0.167,0.1713,0.1745,0.1781,0.1842,0.1864,0.1887,0.1938,0.1977,0.2039,0.2056,0.2108,0.2155,0.2177,0.2191,0.2263,0.2253,0.2278,0.2324,0.2352,0.2362,0.2371,0.2394,0.2405,0.228,0.228,0.228,0,0.1678,0.1723,0.1761,0.18,0.1838,0.1883,0.1924,0.1964,0.203,0.2065,0.2076,0.217,0.2188,0.2248,0.228,0.2282,0.2296,0.2279,0.2362,0.2371,0.2379,0.24,0.2411,0.2284,0.2283,0.2283,0.2283,0,0.1708,0.1758,0.1783,0.1849,0.1891,0.1939,0.1992,0.2048,0.2099,0.2135,0.2223,0.2254,0.2308,0.2326,0.2328,0.24,0.2393,0.237,0.2331,0.2395,0.2414,0.2424,0.2289,0.2288,0.2287,0.2286,0,0,0.168,0.1784,0.1796,0.184,0.1926,0.1959,0.2035,0.2106,0.2161,0.2231,0.23,0.2367,0.2396,0.2415,0.243,0.2458,0.2532,0.2449,0.2448,0.2464,0.2603,0.2462,0.2459,0.2527,0.2529,0.253,0.2596,0,0.1695,0.1774,0.1824,0.1905,0.1949,0.2019,0.2081,0.2156,0.2223,0.2299,0.2352,0.2426,0.2426,0.2469,0.25,0.253,0.256,0.2516,0.2545,0.2546,0.2406,0.2466,0.2537,0.2603,0.2605,0.2607,0.2608,0,0.1699,0.1758,0.1838,0.1943,0.197,0.2027,0.2139,0.2201,0.2307,0.2364,0.2444,0.2488,0.2571,0.2549,0.263,0.2607,0.2619,0.2625,0.2627,0.2478,0.2423,0.2525,0.2626,0.2624,0.2623,0.2622,0.2621,0,0.1651,0.1762,0.1831,0.1868,0.199,0.2049,0.2118,0.2227,0.2295,0.2416,0.2481,0.2565,0.2634,0.2662,0.2702,0.2678,0.277,0.2727,0.2608,0.2599,0.2677,0.2667,0.2774,0.2774,0.2773,0.2773,0.2773,0,0.1627,0.1685,0.1823,0.1858,0.1944,0.2041,0.2139,0.2216,0.2343,0.2414,0.2519,0.2581,0.2671,0.2733,0.2735,0.271,0.2801,0.2627,0.2607,0.2703,0.2696,0.2684,0.2673,0.2776,0.2775,0.2775,0.2774,0,0.1555,0.1647,0.173,0.1874,0.1923,0.1986,0.2145,0.2207,0.2344,0.2443,0.2493,0.2632,0.2702,0.2768,0.2822,0.2746,0.2735,0.2701,0.2824,0.2808,0.2534,0.2526,0.2558,0.2553,0.2549,0.2546,0.2544,0,0.1522,0.1563,0.1721,0.1774,0.1845,0.1959,0.203,0.2185,0.225,0.2442,0.2472,0.2612,0.2679,0.2648,0.2722,0.2721,0.2687,0.2665,0.2572,0.2535,0.2514,0.2511,0.2508,0.2538,0.2537,0.2536,0.2535,0,0.1453,0.1526,0.1594,0.1702,0.1791,0.1875,0.1992,0.2026,0.2192,0.2343,0.2393,0.2434,0.2512,0.2545,0.258,0.2567,0.2664,0.2624,0.2631,0.2543,0.2512,0.2493,0.2495,0.2522,0.2524,0.2525,0.2526,0,0.1401,0.1428,0.1528,0.1612,0.1711,0.1756,0.1834,0.1913,0.1996,0.22,0.2209,0.2349,0.2481,0.2467,0.2491,0.2482,0.2429,0.2332,0.2352,0.2367,0.2274,0.2204,0.211,0,0,0,0,0,0.1338,0.136,0.143,0.1509,0.1602,0.1661,0.179,0.1871,0.2026,0.2007,0.2104,0.216,0.2205,0.2281,0.223,0.2407,0.2441,0.2338,0.234,0.245,0.2465,0.2373,0,0,0,0,0,0,0.1295,0.1352,0.1386,0.1404,0.1438,0.1522,0.1594,0.1706,0.1705,0.1869,0.1904,0.2034,0.211,0.221,0.2189,0.2213,0.217,0.2433,0.2428,0.2442,0.2455,0.2467,0.2378,0,0,0,0,0]},{"header":{"parameterUnit":"m.s-1","parameterCategory":2,"la1":30.2991,"la2":30.254,"lo1":-89.0895,"lo2":-89.0444,"dy":0.0017,"dx":0.0017,"nx":28,"ny":28,"refTime":"2023-03-13T21:00:00:Z","depth":"4","parameterNumber":3,"parameterNumberName":"V-component_of_CURRENTS"},"data":[0,0,0,0,0,0,0,0,0,0,0,0,0,0,0,0,0,0,0,0,0,0,0,0,0,0,0,0,0,0,0,0,0,0,0,0,0,0,0,0,0,0,0,0,0,0,0,0,0,0,0,0,0,0,0,0,0,0,0.0086,0.0085,0,0.0034,0.0033,0.0032,-0.0004,-0.0004,-0.0004,-0.0004,-0.0079,-0.0081,-0.0083,0,0,0,0,0,0,0,0,0,0,0,0,0,0.011,0.011,0.0086,0.0085,0.0085,0.0034,0.0033,0.0032,-0.0004,-0.0004,-0.0004,-0.0005,-0.0078,-0.0081,-0.0083,0,0,0,0,0,0,0,0,0,0,0,0,0,0.0082,0.011,0.0086,0.0061,0.0059,0.0034,0.0033,0.0032,-0.0004,-0.0004,-0.0004,-0.0005,-0.0078,-0.008,-0.0083,-0.0095,0,0,-0.0091,-0.0093,0,0,0,0,0,0,0,0,0.0083,0.0081,0.0066,0.0063,0.006,0.0022,0.0014,-0.0011,-0.0004,0.0019,-0.0004,-0.0005,-0.0046,-0.0052,-0.0062,-0.0098,-0.0101,-0.0092,-0.0093,-0.0094,-0.0095,0,0,0,0,0,0,0,0.0085,0.0083,0.0064,0.0065,0.0062,0.0038,0.0034,0.0009,-0.0013,0.0017,0.0014,0.001,-0.0048,-0.0059,-0.0064,-0.0103,-0.0092,-0.0094,-0.0096,-0.0097,-0.0163,-0.0163,0,0,0,0,0,0,0.0097,0.0085,0.0066,0.0063,0.0073,0.0038,0.0033,0.0034,-0.0012,-0.0019,0.0011,0.0009,-0.0055,-0.0061,-0.0067,-0.0083,-0.0094,-0.0097,-0.0099,-0.0163,-0.0163,-0.0163,0,0,0,0,0,0,0.0098,0.0096,0.0068,0.0073,0.0068,0.0038,0.0038,0.0033,0.0021,-0.0017,-0.0024,0.0006,-0.0055,-0.0063,-0.0088,-0.0086,-0.0098,-0.0101,-0.0163,-0.0163,-0.0163,-0.0116,0,0,0,0,0,0,0.0099,0.0097,0.01,0.0074,0.0068,0.0057,0.0039,0.0032,0.002,0.0017,-0.0023,-0.0031,-0.0056,-0.0084,-0.0091,-0.009,-0.0103,-0.0162,-0.0163,-0.0163,-0.0117,-0.0114,-0.0112,0,0,0,0,0,0.01,0.0108,0.0101,0.0099,0.0075,0.0058,0.0052,0.0029,0.002,0.0017,-0.0011,-0.0029,-0.009,-0.0086,-0.0094,-0.0094,-0.0162,-0.0163,-0.0163,-0.0118,-0.0115,-0.0112,0,0,0,0,0,0,0.0119,0.0104,0.0096,0.0099,0.0082,0.0052,0.0049,0.0033,0.0009,0.0008,-0.003,-0.004,-0.0061,-0.0085,-0.0079,-0.0115,-0.013,-0.0132,-0.0093,-0.009,-0.0088,-0.0071,-0.0105,0,0,0,0,0,0.0127,0.0131,0.0108,0.0111,0.0105,0.0078,0.0069,0.0054,0.003,0.0019,-0.001,-0.0041,-0.0069,-0.0084,-0.0112,-0.013,-0.0158,-0.0136,-0.0133,-0.0131,-0.0124,-0.0169,-0.017,-0.0164,-0.0164,-0.0164,0,0,0.0136,0.0128,0.013,0.0116,0.0102,0.0099,0.0072,0.0063,0.0059,0.0015,-0.0,-0.0032,-0.0072,-0.0093,-0.0105,-0.0112,-0.0148,-0.0131,-0.0129,-0.0123,-0.0169,-0.017,-0.0171,-0.0164,-0.0164,-0.0164,0,0,0.0158,0.0149,0.016,0.0148,0.0133,0.0117,0.0117,0.009,0.0075,0.0057,0.0023,-0.0007,-0.0046,-0.0077,-0.0097,-0.0096,-0.0132,-0.0105,-0.0079,-0.0122,-0.0123,-0.0124,-0.0158,-0.0162,-0.0104,-0.0104,-0.0104,0,0.0169,0.018,0.0159,0.0164,0.0161,0.0129,0.0138,0.0118,0.0085,0.0075,0.006,-0.0004,-0.0038,-0.0069,-0.0069,-0.009,-0.0116,-0.0085,-0.0118,-0.012,-0.0122,-0.0156,-0.0161,-0.0102,-0.0102,-0.0102,-0.0102,0,0.0195,0.0204,0.0209,0.0208,0.0201,0.0203,0.0176,0.0165,0.0145,0.0121,0.0088,0.0037,0.0,-0.002,-0.0044,-0.0073,-0.0088,-0.0108,-0.0123,-0.0119,-0.0156,-0.0162,-0.0098,-0.0099,-0.01,-0.01,0,0,0.0222,0.0228,0.0231,0.0241,0.0225,0.0224,0.0218,0.0202,0.0202,0.0158,0.0148,0.0089,0.0059,0.0034,-0.0007,-0.0047,-0.0086,-0.0076,-0.008,-0.0103,-0.0175,-0.0171,-0.0179,-0.0111,-0.0112,-0.0113,-0.0195,0,0.025,0.0277,0.0269,0.0294,0.0306,0.0279,0.0278,0.0258,0.0233,0.0213,0.0152,0.0128,0.008,0.0066,0.0016,-0.0058,-0.0101,-0.0061,-0.0181,-0.0185,-0.0176,-0.0185,-0.0116,-0.02,-0.0201,-0.0202,-0.0203,0,0.0279,0.0295,0.0329,0.0344,0.0347,0.0354,0.0351,0.0347,0.0308,0.0285,0.0243,0.0198,0.0135,0.0096,-0.0033,-0.0004,-0.0082,-0.0144,-0.0149,-0.0165,-0.0193,-0.0207,-0.0215,-0.0214,-0.0214,-0.0213,-0.0212,0,0.0313,0.0337,0.037,0.0373,0.0382,0.0391,0.0394,0.037,0.0379,0.0336,0.0336,0.0245,0.0211,0.0099,-0.0028,-0.0031,-0.017,-0.0193,-0.0265,-0.0266,-0.0265,-0.0263,-0.0284,-0.0284,-0.0284,-0.0284,-0.0283,0,0.0344,0.0371,0.039,0.0408,0.0449,0.0435,0.0469,0.0453,0.0445,0.0461,0.0382,0.0369,0.0211,0.0115,-0.001,-0.0154,-0.0162,-0.0259,-0.0288,-0.0243,-0.0238,-0.027,-0.0267,-0.0287,-0.0286,-0.0285,-0.0285,0,0.0372,0.0387,0.043,0.0454,0.0469,0.0497,0.0533,0.0554,0.0537,0.0555,0.055,0.046,0.0331,0.017,-0.0016,-0.0119,-0.0263,-0.0314,-0.0244,-0.0267,-0.0334,-0.0328,-0.04,-0.0401,-0.0401,-0.0402,-0.0402,0,0.0386,0.0414,0.0469,0.0503,0.0518,0.0561,0.0594,0.06,0.0625,0.0611,0.0622,0.0518,0.0435,0.0185,0.0,-0.024,-0.0277,-0.035,-0.0353,-0.0326,-0.0347,-0.034,-0.0334,-0.0403,-0.0403,-0.0403,-0.0403,0,0.0417,0.0441,0.0477,0.0547,0.0596,0.0652,0.0697,0.0723,0.073,0.0724,0.0687,0.0558,0.041,0.0199,0.0011,-0.0164,-0.0303,-0.0356,-0.0357,-0.036,-0.033,-0.0349,-0.0342,-0.0405,-0.0405,-0.0404,-0.0404,0,0.0442,0.0472,0.0526,0.0585,0.0657,0.0717,0.0736,0.0761,0.0787,0.0767,0.0752,0.0591,0.0494,0.0239,0.0065,-0.0107,-0.0156,-0.0211,-0.022,-0.0221,-0.015,-0.0085,-0.0106,0,0,0,0,0,0.046,0.0498,0.0558,0.0628,0.0698,0.0742,0.0797,0.0806,0.0818,0.0806,0.0782,0.0646,0.0392,0.028,0.011,0.0036,-0.0199,-0.0171,-0.027,-0.0414,-0.0412,-0.036,0,0,0,0,0,0,0.0476,0.0534,0.0561,0.0656,0.0708,0.0789,0.0829,0.0832,0.082,0.0806,0.0675,0.0611,0.0362,0.0498,0.0113,0.0059,-0.0027,-0.0289,-0.0293,-0.0415,-0.0413,-0.0412,-0.0357,0,0,0,0,0]}]]